Regional Weather Roundup
Issued by NWS

Home | Current Version | Previous Version | Text Only | Print | Product List | Glossary Off
Versions: 1 2 3 4 5 6 7 8 9 10 11 12 13 14 15 16 17 18 19 20 21 22 23 24 25 26 27 28 29 30 31 32 33 34 35 36 37 38 39 40 41 42 43 44 45 46 47 48 49 50

000
ASUS43 KDTX 230910
RWRMI
MICHIGAN HOURLY REGIONAL WEATHER ROUNDUP
NATIONAL WEATHER SERVICE DETROIT/PONTIAC MI
500 AM EDT SAT AUG 23 2014

NOTE: "FAIR" INDICATES FEW OR NO CLOUDS BELOW 12,000 FEET WITH NO
SIGNIFICANT WEATHER AND/OR OBSTRUCTION TO VISIBILITY.

MIZ047>049-052>055-059>063-066>070-074>076-081>083-231000-
SOUTHEAST LOWER MICHIGAN

CITY           SKY/WX    TMP DP  RH WIND       PRES   REMARKS
ADRIAN         MOCLDY    69  62  78 CALM      30.02S
ALMA           PTCLDY    61  60  96 CALM      30.05R FOG
ANN ARBOR      CLOUDY    69  61  75 NE3       30.01S
BAD AXE        FOG       61  61 100 NW3       30.05S VSB 1/4
CARO           FOG       59  59 100 CALM      30.03F VSB 1/4
DETROIT CITY   CLEAR     68  62  81 NE5       30.02R
DETROIT        CLOUDY    70  60  70 NE5       30.01S
FLINT          CLEAR     66  60  81 NE5       30.03S
GROSSE ILE     CLOUDY    70  64  83 N3        30.00R
HILLSDALE      CLOUDY    68  68 100 CALM      30.02S
HOWELL         PTCLDY    65  63  94 CALM      30.02S

CITY           SKY/WX    TMP DP  RH WIND       PRES   REMARKS
JACKSON        CLEAR     68  65  90 NE3       30.01S
LAMBERTVILLE   CLOUDY    68  64  88 CALM      30.01S
LANSING        PTCLDY    67  64  90 NE7       30.03R
LAPEER         FOG       62  60  96 CALM      30.04R VSB 1/4
MASON          CLOUDY    68  67  94 NE3       30.01S
MONROE         MOCLDY    70  64  83 CALM      29.99S
MT. CLEMENS    FOG       64  64 100 N7        30.01S VSB 3/4
PONTIAC        CLEAR     66  60  81 CALM      30.02S
PORT HOPE        N/A     63  62  97 CALM      30.03R
PORT HURON     CLOUDY    64  64 100 N5        30.02S FOG
TRI CITIES     CLEAR     63  60  90 NE7       30.04S
TROY           CLEAR     67  62  84 CALM      30.04R
SAGINAW HB     CLEAR     61  61 100 CALM      30.03S FOG
$$
MIZ043>046-050>051-056>058-064>065-071>073-077>080-231000-
SOUTHWEST LOWER MICHIGAN

CITY           SKY/WX    TMP DP  RH WIND       PRES   REMARKS
BATTLE CREEK   MOCLDY    72  68  87 E5        30.01S
BENTON HARBOR  PTCLDY    70  69  97 CALM      29.98R FOG
BIG RAPIDS     CLEAR     61  61 100 CALM      30.04S
COLDWATER      MOCLDY    72  70  95 E3        30.00S FOG
FREMONT        FAIR      65  64  94 E5        30.01S
HOLLAND        CLEAR     70  67  90 E3        30.00F
GRAND RAPIDS   PTCLDY    68  68 100 NE6       30.01F
IONIA          FAIR      65  64  96 NE6       30.02S
KALAMAZOO      PTCLDY    69  68  96 NE3       30.00S FOG
LUDINGTON      MOCLDY    67  64  89 E3        30.02S
MARSHALL       CLOUDY    69  68  96 CALM      30.00S FOG
MOUNT PLEASANT CLOUDY    64  63  97 NE3       30.04S FOG
MUSKEGON       PTCLDY    69  64  84 E5        30.00S
SOUTH HAVEN    CLEAR     71  71 100 E3        29.99R FOG
$$
MIZ016>042-231000-
NORTHERN LOWER MICHIGAN

CITY           SKY/WX    TMP DP  RH WIND       PRES   REMARKS
ALPENA         PTCLDY    56  56 100 CALM      30.07R FOG
BEAVER ISLAND  CLOUDY    67  64  91 E6        30.05F
BELLAIRE       MOCLDY    64  62  94 CALM      30.04F FOG
CADILLAC       CLEAR     62  62 100 CALM      30.05S
CHARLEVOIX     PTCLDY    68  65  91 S3        30.07F
FRANKFORT      CLEAR     67  62  83 CALM      30.02S
GAYLORD        CLEAR     62  60  93 NE3       30.08S
GRAYLING       CLEAR     60  60 100 CALM      30.08S FOG
HARBOR SPRINGS CLEAR     65  62  91 NE5       30.06S
HOUGHTON LAKE  CLEAR     57  57 100 NE5       30.07F
MANISTEE       CLEAR     64  61  88 E5        30.02F
OSCODA         FOG       63  63 100 NW3       30.05R VSB 1/4
PELLSTON       MOCLDY    58  58 100 CALM      30.07F FOG
ROGERS CITY    CLEAR     58  58 100 CALM      30.08R FOG
TRAVERSE CITY  MOCLDY    68  63  84 CALM      30.02F
$$
MIZ007>008-015-231000-
EASTERN UPPER MICHIGAN

CITY           SKY/WX    TMP DP  RH WIND       PRES   REMARKS
KINROSS        CLEAR     63  61  94 NE6       30.08S
MACKINAC ISLAN PTCLDY    62  62 100 E5        30.07S FOG
NEWBERRY       CLOUDY    61  60  97 NW5       30.07S FOG
S. S. MARIE    CLEAR     63  60  90 CALM      30.08R FOG
MUNISING         N/A     70  63  78 CALM      30.03F
$$
MIZ004>006-011>014-085-231000-
CENTRAL UPPER MICHIGAN

CITY           SKY/WX    TMP DP  RH WIND       PRES   REMARKS
MANISTIQUE     CLOUDY    69  64  86 E6        30.04S
ESCANABA       CLOUDY    68  64  88 NE6       30.02S
MENOMINEE      PTCLDY    66  64  94 CALM      30.01R
SAWYER-GWINN   HVY RAIN  65  64  95 E6        30.05S
$$
MIZ001>003-009>011-084-231000-
WESTERN UPPER MICHIGAN

CITY           SKY/WX    TMP DP  RH WIND       PRES   REMARKS
IRON MOUNTAIN  CLOUDY    67  66  97 CALM      30.02S FOG
HOUGHTON       FOG       63  61  93 E9        30.04S VSB 1/4
COPPER HARBOR    N/A     56  54  93 CALM      30.05S
$$

ABBREVIATIONS USED IN REMARKS
   TC - TEMPERATURE IN CELSIUS
  WCI - WIND CHILL INDEX
   HX - HEAT INDEX
  VSB - VISIBILITY



USA.gov is the U.S. government's official web portal to all federal, state and local government web resources and services.